Wind_Speed
23 21 21 21 21 20 20 21 21 20 18 17 15 13 12 11 10 9 8 7 7 6 5 6 6 6 6 7 6 7 7 7 7 7 6 6 5 5 5 5 5 5 4 5 5 5 5 7 8
23 22 21 22 21 20 20 21 21 19 18 17 15 13 12 11 11 10 9 8 7 7 7 7 7 7 7 7 7 6 7 7 6 6 6 6 5 5 5 5 5 5 4 5 4 4 5 7 8
22 22 22 22 22 22 21 21 21 19 18 18 16 14 12 11 11 10 10 8 8 8 7 7 7 7 7 7 7 6 7 7 7 6 6 6 5 5 5 5 5 5 4 4 4 4 5 7 7
21 23 23 23 22 23 22 22 22 20 19 18 17 15 12 11 11 10 10 8 8 8 8 8 8 8 7 7 7 6 6 7 6 6 6 6 6 5 5 5 5 4 4 4 4 4 5 7 7
21 22 23 23 23 23 24 24 23 22 20 18 17 15 13 12 11 10 10 9 8 8 9 9 9 8 7 7 7 6 5 6 6 6 6 7 6 6 5 5 5 4 4 4 4 5 5 6 6
22 22 22 24 24 24 24 24 24 22 21 19 18 16 14 12 11 11 10 10 9 9 9 9 9 8 8 7 6 5 5 6 7 7 7 7 7 6 5 5 4 4 4 4 4 5 6 6 6
22 22 22 23 24 24 24 24 24 23 21 20 18 16 14 12 12 11 11 11 10 10 10 10 9 8 8 8 7 7 7 7 8 7 7 7 6 6 5 5 4 4 4 4 4 5 5 5 6
21 21 21 23 24 24 24 24 23 22 22 20 19 17 15 13 12 12 11 11 11 11 10 10 9 9 9 9 9 9 9 9 9 8 6 6 6 6 5 5 4 3 3 3 4 4 4 5 5
19 20 21 22 23 23 23 23 22 22 22 21 19 18 16 14 12 11 11 11 11 11 10 10 9 9 9 10 10 10 10 9 9 7 6 6 6 6 5 4 4 4 4 4 3 3 4 4 4
16 18 20 21 21 21 22 23 23 22 22 21 20 18 17 15 13 12 12 11 11 10 10 10 10 10 10 10 9 9 9 9 8 7 7 6 6 6 5 4 4 4 4 3 3 4 3 3 3
13 15 17 19 19 20 21 22 23 22 22 21 20 19 17 15 13 13 12 12 11 10 10 10 10 10 9 9 9 9 8 8 7 7 6 6 5 5 4 4 4 4 3 3 3 3 3 2 2
12 14 14 16 17 18 20 21 22 22 22 21 20 19 17 16 13 12 12 12 12 10 10 10 10 9 9 8 8 7 7 7 6 6 5 5 4 4 3 3 3 2 2 2 2 2 3 2 2
9 12 12 13 15 17 18 19 21 21 21 20 19 18 18 16 15 13 12 11 11 11 10 9 9 9 9 8 7 7 7 6 6 5 4 4 3 2 2 2 2 1 1 1 1 2 3 3 3
7 8 10 12 14 15 17 18 19 19 20 20 19 18 18 16 15 14 12 12 11 11 10 10 9 9 9 8 7 7 6 6 5 5 4 3 2 1 1 1 1 2 2 2 2 3 3 4 4
5 6 8 10 12 14 15 15 17 17 18 18 18 18 18 17 15 14 13 12 12 11 11 10 9 9 8 7 7 6 6 5 5 4 4 3 3 1 1 1 1 2 2 2 3 3 3 4 4
2 4 6 9 10 12 13 14 14 14 15 16 17 17 18 18 16 14 13 12 12 12 11 11 10 9 8 8 7 6 6 5 4 4 3 3 3 2 2 1 1 2 3 3 4 4 4 5 5
2 1 3 6 8 10 11 11 12 12 14 14 16 17 17 16 16 15 13 13 13 12 12 11 10 9 9 8 7 7 6 5 5 4 3 3 2 2 2 2 2 2 3 4 5 5 5 5 6
4 3 2 4 7 8 9 9 10 10 12 12 13 15 16 16 16 16 15 14 13 12 12 11 10 10 9 8 7 6 6 4 4 3 3 3 3 2 2 3 3 4 4 5 5 6 6 7 7
7 5 4 4 6 7 7 8 9 9 11 12 12 12 13 14 14 15 15 14 13 12 11 11 10 9 8 8 7 6 5 4 4 3 3 4 4 3 4 4 4 4 4 5 7 7 8 8 9
10 8 6 5 4 4 6 7 8 9 10 10 10 10 10 11 12 13 13 13 13 12 11 10 9 9 9 8 7 6 5 5 4 4 4 4 5 5 5 5 5 6 6 6 7 8 9 10 10
12 10 8 6 5 4 5 6 7 8 9 9 9 9 8 9 9 11 12 12 12 12 11 10 9 9 9 8 7 7 7 7 5 4 4 5 5 5 6 6 6 7 7 7 8 8 9 11 12
14 13 11 9 7 6 6 6 6 7 8 8 8 8 7 8 8 8 9 10 11 11 11 10 10 10 10 9 9 8 7 7 6 6 6 6 6 6 6 7 7 8 8 8 9 9 10 11 12
16 15 14 13 11 9 8 6 5 6 6 7 7 7 6 7 6 6 7 8 9 9 10 10 10 9 9 9 9 9 8 8 8 7 7 8 8 7 7 7 8 8 8 8 9 9 10 11 12
18 17 16 16 15 12 9 8 7 7 6 7 7 6 6 7 6 6 6 6 6 7 8 9 9 9 9 9 9 9 9 9 9 9 9 8 8 8 7 7 8 8 8 9 10 10 11 11 12
19 19 17 17 16 13 11 10 8 7 7 7 7 6 6 7 6 6 6 5 6 6 7 8 8 8 9 9 9 9 9 9 9 9 9 9 9 9 9 8 8 9 9 9 10 10 11 12 12
20 19 18 17 16 15 14 12 10 9 9 8 8 8 7 7 7 7 7 6 5 6 7 8 8 8 8 8 8 9 10 10 10 10 10 10 10 10 10 9 10 10 10 10 10 10 11 12 13
22 21 19 18 18 18 17 14 12 12 10 10 10 10 9 9 8 7 7 7 6 6 7 7 8 9 9 9 9 9 10 10 10 10 10 11 11 11 10 10 11 11 11 11 11 11 11 12 12
24 23 21 21 20 19 19 16 14 13 13 12 12 11 10 9 8 8 8 7 6 6 6 7 8 9 10 9 10 10 10 11 11 11 12 12 12 12 11 11 12 11 12 12 11 11 12 13 13
25 25 24 23 22 21 19 17 15 14 13 12 11 11 12 10 9 9 9 9 8 7 7 7 8 10 11 10 10 11 11 12 12 13 13 13 13 12 12 12 12 12 12 12 12 13 13 14 14
27 26 25 24 23 22 21 19 16 15 14 12 12 11 11 11 11 11 10 10 9 9 8 8 9 10 11 11 11 12 12 13 14 14 14 14 13 12 11 12 13 13 13 13 13 14 14 15 15
Wind_Direction
54 52 52 51 51 49 48 48 47 45 43 46 49 50 54 58 58 59 67 71 77 84 94 104 103 100 99 103 108 115 121 125 124 122 121 120 119 119 123 129 136 139 134 136 135 138 134 147 151
54 52 51 49 49 49 50 48 46 43 42 45 46 49 53 57 59 64 69 75 76 80 87 95 99 97 98 102 105 109 113 119 123 124 122 119 120 124 128 133 141 139 139 141 142 147 140 148 152
55 53 53 51 48 48 49 49 47 44 44 44 45 49 53 57 61 66 69 69 71 78 83 87 95 97 98 104 107 113 114 117 119 120 118 114 118 124 130 136 140 142 143 146 144 142 148 157 156
55 55 54 52 49 48 48 49 49 47 45 43 41 46 53 57 65 68 70 70 75 81 85 86 91 98 100 106 110 117 116 118 116 116 116 115 114 113 114 125 134 137 141 149 152 150 153 162 164
56 55 53 52 50 48 47 48 49 47 45 43 43 45 53 55 65 69 71 70 74 80 83 83 84 90 93 102 112 112 114 123 123 120 119 119 118 115 110 116 122 126 127 139 156 162 158 165 170
56 55 53 52 49 47 46 45 46 45 44 44 45 46 51 54 61 68 69 69 73 78 80 84 85 91 90 92 99 115 124 130 130 127 122 117 115 114 114 114 117 123 130 134 155 161 160 162 168
58 56 54 52 48 46 45 44 43 43 42 43 44 44 49 55 59 63 67 73 75 76 77 78 82 88 88 90 95 106 117 124 127 124 122 118 115 113 115 118 118 123 133 136 150 156 158 162 170
59 57 54 51 47 45 45 44 43 43 41 41 42 44 46 49 53 58 61 69 73 75 77 77 80 84 86 89 93 99 106 110 115 117 119 116 116 117 119 119 119 126 133 142 155 160 158 156 163
61 58 55 52 49 46 44 44 44 44 42 41 41 41 43 47 52 58 61 65 69 73 75 77 78 82 87 92 96 98 102 106 107 108 110 112 115 117 120 122 123 121 130 141 154 170 161 162 168
62 58 54 53 52 48 44 45 45 44 42 40 41 40 40 46 52 57 61 63 65 69 72 73 75 81 85 92 97 99 101 102 103 104 105 108 113 117 117 120 126 132 140 150 140 164 171 170 174
60 58 57 55 53 51 47 46 45 44 43 40 39 40 40 44 49 53 59 63 64 70 75 75 75 80 83 89 95 99 99 100 101 102 105 107 111 118 121 125 126 127 127 132 138 150 162 168 168
57 58 60 58 54 52 49 45 44 43 41 38 37 39 39 41 45 52 57 60 63 67 71 72 74 77 79 85 93 99 99 95 96 100 102 107 114 123 123 130 131 127 128 131 139 149 165 180 188
56 56 56 57 54 50 47 45 43 41 40 38 36 38 40 42 44 51 55 58 61 65 70 71 72 76 79 83 90 95 96 94 93 97 98 101 108 122 135 142 142 160 175 184 181 189 195 207 221
55 51 55 55 50 48 46 44 43 40 39 37 36 36 38 43 46 50 54 56 61 65 68 71 74 75 77 81 84 90 94 94 93 90 85 85 95 129 161 169 170 199 210 216 221 222 223 231 238
56 47 51 49 47 47 47 44 40 38 37 36 36 35 37 42 44 48 53 57 60 65 68 69 74 75 75 75 77 81 86 93 91 87 80 74 73 81 140 204 230 226 235 240 243 241 240 240 246
74 44 42 41 41 43 43 43 39 36 36 36 36 37 38 41 43 43 50 54 56 63 66 66 69 70 71 68 67 68 74 78 80 82 72 63 50 52 59 12 287 241 243 247 251 249 246 250 255
218 332 14 28 34 37 38 37 36 36 36 35 35 37 39 42 44 45 49 53 56 61 64 67 66 64 62 60 64 64 68 67 65 65 53 41 28 23 3 337 310 274 264 261 261 262 261 259 262
243 265 324 14 16 23 30 32 33 35 33 33 34 38 42 42 45 46 50 53 56 58 60 60 58 58 56 56 58 57 56 55 47 38 24 10 358 348 340 326 300 282 273 270 270 267 266 265 267
244 257 281 335 358 12 16 24 24 32 33 32 32 36 41 43 45 46 46 49 52 53 52 52 50 50 50 49 48 45 41 33 25 13 359 350 342 327 317 309 300 293 286 275 269 269 268 268 270
245 256 270 304 324 350 9 17 14 20 27 29 28 30 35 39 43 45 46 46 48 49 48 46 43 44 42 40 35 27 22 20 13 4 3 350 337 327 320 308 299 292 288 283 276 272 271 273 274
246 254 261 274 292 313 337 359 9 19 26 26 24 22 25 33 37 40 43 44 45 45 43 39 34 32 30 28 27 21 15 11 8 1 353 344 333 322 312 308 301 289 284 282 276 276 276 276 276
241 251 254 258 270 289 313 340 5 11 14 14 16 16 16 23 27 36 40 39 40 39 35 31 28 27 25 25 25 22 20 17 12 359 347 340 337 326 309 302 301 294 286 284 279 275 278 275 275
240 247 248 252 264 273 288 304 330 337 351 356 3 12 12 13 14 22 31 32 33 31 26 22 20 21 20 19 18 17 15 10 2 357 350 343 339 334 322 307 300 298 290 288 286 284 282 280 277
237 242 248 251 258 267 280 290 301 316 326 337 344 355 2 3 6 9 17 21 27 28 23 19 14 14 12 10 9 7 5 3 1 357 352 347 339 333 325 317 311 304 293 289 289 288 287 286 283
236 239 245 249 254 264 274 283 293 299 305 311 322 331 342 349 354 358 356 359 16 20 20 18 14 11 7 3 360 358 357 356 353 350 347 345 339 332 326 323 319 312 304 295 286 285 286 289 287
234 239 245 252 255 263 269 280 289 291 293 295 303 310 317 330 336 339 337 343 1 4 2 3 5 5 1 355 352 351 348 346 346 344 340 336 334 333 328 325 319 315 311 306 298 294 289 287 285
235 239 245 254 257 261 268 277 283 287 287 290 297 300 302 314 319 319 320 330 340 345 348 349 353 353 353 352 348 347 347 344 344 342 338 333 330 328 325 320 317 314 314 311 305 301 293 289 288
234 238 245 252 258 263 269 276 280 285 291 291 289 291 293 298 301 309 313 318 322 325 332 339 342 352 354 353 348 345 346 343 341 338 334 329 325 321 317 312 310 311 309 308 306 300 297 291 288
234 237 243 249 256 263 269 275 282 286 290 293 291 291 291 288 291 303 306 306 304 307 317 327 335 340 342 341 341 339 338 336 333 330 326 326 323 319 314 310 308 309 307 305 304 300 297 297 293
234 237 242 250 256 263 269 273 278 283 284 287 287 288 290 284 289 297 297 296 299 305 310 319 324 329 331 331 329 329 329 328 325 324 323 322 320 316 312 312 312 309 308 305 303 301 298 296 296
Height
5880 5878 5877 5876 5874 5872 5869 5868 5866 5864 5863 5861 5860 5859 5859 5859 5859 5861 5858 5857 5857 5857 5858 5858 5858 5859 5859 5859 5860 5861 5861 5862 5863 5864 5866 5867 5868 5869 5870 5870 5871 5872 5873 5873 5874 5874 5874 5874 5876
5882 5881 5880 5878 5876 5873 5872 5870 5867 5866 5865 5863 5862 5861 5860 5859 5859 5859 5858 5858 5858 5858 5858 5858 5859 5859 5859 5860 5861 5861 5862 5863 5864 5865 5866 5867 5868 5869 5870 5871 5872 5873 5873 5874 5875 5875 5875 5876 5878
5885 5884 5883 5881 5878 5876 5874 5872 5870 5868 5867 5865 5864 5862 5862 5861 5861 5860 5860 5860 5859 5859 5859 5859 5859 5860 5860 5861 5861 5862 5863 5864 5865 5866 5867 5868 5869 5869 5871 5871 5872 5873 5874 5874 5875 5876 5877 5878 5879
5888 5887 5886 5884 5881 5879 5877 5874 5872 5871 5869 5867 5866 5865 5864 5863 5863 5862 5862 5861 5861 5861 5861 5860 5860 5861 5861 5861 5862 5862 5863 5864 5865 5866 5867 5868 5869 5870 5871 5872 5873 5873 5874 5875 5876 5877 5877 5878 5879
5891 5890 5888 5885 5883 5881 5879 5877 5875 5873 5871 5870 5868 5867 5866 5865 5864 5864 5863 5863 5863 5862 5862 5861 5862 5862 5862 5862 5862 5862 5863 5863 5865 5867 5868 5869 5870 5871 5872 5872 5873 5874 5875 5876 5876 5877 5878 5879 5880
5894 5891 5890 5888 5886 5884 5881 5879 5877 5876 5874 5872 5870 5869 5868 5867 5866 5866 5865 5865 5864 5864 5863 5863 5863 5863 5863 5862 5862 5862 5862 5863 5865 5867 5868 5869 5871 5872 5872 5873 5874 5875 5876 5876 5877 5878 5879 5880 5880
5896 5894 5892 5890 5888 5886 5884 5882 5880 5879 5877 5875 5873 5872 5870 5870 5869 5868 5867 5866 5866 5865 5865 5865 5864 5864 5864 5864 5863 5862 5862 5863 5865 5867 5869 5870 5871 5872 5873 5874 5875 5875 5876 5877 5878 5879 5880 5881 5881
5898 5897 5894 5893 5891 5890 5888 5885 5883 5882 5880 5878 5876 5874 5873 5872 5871 5869 5868 5868 5867 5867 5867 5866 5866 5866 5866 5865 5865 5864 5864 5865 5867 5869 5870 5871 5872 5873 5874 5875 5875 5876 5877 5878 5878 5879 5880 5880 5881
5900 5900 5897 5895 5894 5893 5891 5888 5887 5885 5883 5881 5879 5877 5876 5874 5873 5871 5870 5869 5869 5868 5868 5868 5868 5868 5867 5867 5867 5867 5867 5868 5869 5871 5872 5872 5873 5874 5875 5876 5876 5877 5877 5878 5879 5879 5879 5881 5882
5903 5901 5900 5898 5897 5896 5894 5892 5890 5888 5886 5884 5882 5880 5878 5876 5875 5873 5872 5871 5870 5870 5870 5870 5869 5869 5869 5869 5869 5870 5870 5871 5872 5872 5873 5874 5874 5875 5876 5876 5877 5878 5878 5879 5879 5879 5880 5881 5882
5905 5903 5902 5901 5900 5898 5897 5895 5893 5891 5889 5887 5885 5883 5881 5879 5877 5876 5874 5873 5872 5872 5872 5872 5871 5871 5871 5871 5872 5872 5872 5873 5873 5874 5874 5875 5875 5876 5877 5877 5878 5878 5879 5879 5880 5880 5881 5881 5882
5907 5906 5905 5903 5902 5901 5899 5898 5896 5894 5892 5890 5888 5885 5883 5881 5880 5878 5877 5875 5874 5874 5873 5873 5873 5873 5873 5873 5874 5874 5874 5874 5875 5875 5876 5876 5877 5877 5878 5878 5878 5879 5879 5880 5880 5881 5881 5882 5882
5909 5908 5907 5906 5905 5903 5902 5900 5899 5896 5894 5892 5890 5888 5886 5883 5882 5880 5879 5878 5877 5876 5875 5875 5875 5875 5875 5875 5875 5875 5876 5876 5876 5877 5877 5877 5878 5878 5878 5878 5879 5879 5880 5880 5880 5881 5881 5882 5882
5911 5910 5909 5908 5907 5905 5904 5903 5901 5899 5897 5895 5892 5890 5888 5886 5884 5882 5881 5880 5879 5878 5877 5877 5877 5876 5876 5876 5877 5877 5877 5877 5877 5877 5878 5878 5878 5878 5878 5879 5879 5879 5880 5880 5880 5880 5881 5882 5882
5912 5912 5911 5910 5909 5907 5907 5905 5903 5902 5900 5898 5895 5893 5891 5889 5887 5885 5883 5882 5881 5880 5879 5879 5878 5878 5878 5878 5878 5878 5878 5878 5878 5878 5878 5878 5878 5878 5878 5879 5879 5879 5879 5880 5880 5880 5881 5881 5882
5913 5913 5912 5911 5910 5909 5910 5907 5906 5904 5902 5900 5898 5896 5894 5891 5889 5887 5886 5885 5883 5882 5881 5881 5880 5880 5880 5880 5879 5879 5879 5879 5879 5879 5879 5879 5879 5878 5878 5878 5878 5879 5879 5879 5880 5880 5880 5881 5881
5913 5913 5912 5912 5911 5910 5910 5909 5908 5906 5904 5903 5901 5898 5896 5894 5892 5890 5888 5887 5886 5884 5883 5883 5882 5882 5881 5881 5881 5880 5880 5880 5880 5880 5879 5879 5879 5879 5878 5878 5878 5878 5878 5878 5879 5879 5879 5880 5880
5913 5913 5913 5913 5912 5911 5911 5910 5909 5908 5906 5904 5902 5901 5899 5897 5895 5893 5891 5889 5888 5887 5886 5885 5884 5884 5883 5882 5882 5882 5881 5881 5880 5880 5880 5880 5879 5879 5878 5878 5878 5878 5878 5878 5878 5878 5879 5879 5879
5912 5913 5913 5913 5913 5912 5912 5911 5910 5909 5908 5906 5904 5902 5901 5899 5898 5896 5894 5892 5890 5889 5888 5887 5886 5885 5884 5884 5883 5882 5882 5881 5881 5880 5880 5880 5879 5878 5878 5878 5877 5877 5877 5877 5877 5877 5877 5877 5877
5911 5912 5913 5913 5913 5912 5912 5912 5911 5910 5908 5907 5906 5904 5903 5901 5900 5898 5896 5894 5892 5891 5890 5889 5887 5886 5885 5885 5884 5883 5882 5881 5881 5880 5880 5879 5878 5878 5877 5876 5876 5876 5875 5875 5875 5875 5875 5875 5875
5910 5911 5912 5912 5912 5912 5912 5912 5912 5910 5909 5908 5907 5905 5904 5902 5901 5899 5897 5896 5894 5892 5891 5890 5889 5888 5887 5886 5884 5884 5882 5881 5880 5880 5880 5879 5878 5877 5876 5875 5875 5874 5874 5873 5873 5873 5873 5873 5873
5909 5910 5910 5911 5911 5912 5912 5912 5912 5911 5910 5909 5908 5907 5905 5903 5902 5900 5899 5897 5895 5894 5892 5891 5890 5889 5887 5886 5885 5884 5883 5882 5881 5880 5879 5878 5877 5875 5875 5874 5873 5873 5872 5871 5871 5871 5871 5870 5870
5907 5908 5909 5909 5910 5911 5911 5911 5912 5911 5910 5909 5908 5907 5906 5904 5902 5901 5900 5898 5897 5895 5894 5892 5891 5889 5888 5887 5886 5884 5883 5882 5881 5880 5879 5877 5876 5874 5873 5872 5872 5871 5870 5869 5869 5868 5868 5867 5867
5904 5905 5906 5907 5908 5909 5910 5910 5911 5910 5910 5909 5908 5907 5906 5904 5903 5901 5900 5898 5896 5895 5894 5893 5892 5890 5889 5887 5886 5885 5883 5882 5881 5879 5878 5877 5875 5874 5872 5871 5870 5869 5868 5867 5867 5866 5865 5865 5864
5901 5903 5905 5905 5906 5907 5908 5908 5909 5909 5908 5908 5907 5907 5906 5904 5902 5901 5900 5898 5896 5895 5894 5893 5892 5890 5889 5887 5886 5885 5883 5882 5880 5879 5877 5875 5874 5872 5871 5869 5868 5867 5865 5865 5864 5863 5862 5862 5861
5899 5901 5903 5903 5904 5905 5905 5906 5908 5907 5906 5906 5906 5905 5905 5904 5902 5901 5900 5898 5896 5895 5894 5892 5891 5890 5888 5887 5885 5884 5883 5881 5879 5878 5876 5874 5872 5871 5869 5868 5866 5865 5863 5862 5861 5860 5859 5858 5858
5895 5897 5899 5900 5901 5902 5902 5904 5905 5905 5904 5904 5904 5904 5903 5902 5901 5900 5899 5898 5896 5894 5893 5892 5890 5889 5887 5886 5884 5883 5881 5880 5878 5876 5874 5872 5870 5869 5867 5865 5864 5863 5861 5860 5859 5857 5856 5855 5854
5892 5894 5895 5897 5898 5898 5900 5901 5902 5902 5902 5902 5902 5901 5901 5900 5899 5898 5897 5896 5895 5893 5892 5891 5890 5888 5886 5885 5883 5882 5880 5878 5876 5874 5872 5870 5868 5866 5864 5863 5862 5860 5859 5858 5856 5854 5853 5852 5851
5888 5890 5891 5893 5894 5895 5896 5900 5899 5899 5899 5899 5899 5899 5898 5897 5897 5896 5895 5894 5893 5892 5891 5889 5888 5886 5885 5883 5882 5880 5878 5876 5874 5872 5870 5868 5866 5864 5862 5861 5859 5858 5856 5855 5853 5852 5850 5849 5848
5883 5885 5888 5890 5891 5892 5893 5898 5896 5896 5896 5896 5896 5896 5895 5894 5894 5893 5892 5891 5891 5890 5889 5887 5886 5884 5883 5881 5880 5878 5876 5874 5872 5870 5867 5865 5863 5861 5859 5858 5856 5855 5853 5852 5850 5848 5847 5846 5844